West Paducah, KY

1:50 PM CST on December 09, 2016 (GMT -0600)
Barkley Regional

Weather History for KPAH - February, 2013

Change the Weather History Date:

Wednesday, February 27, 2013

  Actual Average Record
Temperature  
Mean Temperature 37 °F 43 °F  
Max Temperature 39 °F 53 °F 77 °F (1981)
Min Temperature 34 °F 33 °F 11 °F (2015)
Degree Days  
Heating Degree Days 28 22  
Month to date heating degree days 709 700  
Since 1 July heating degree days 3082 3273  
Cooling Degree Days 0 0  
Month to date cooling degree days 0 0  
Year to date cooling degree days 0 0  
Moisture  
Dew Point 31 °F    
Average Humidity 77    
Maximum Humidity 89    
Minimum Humidity 64    
Precipitation  
Precipitation 0.01 in 0.13 in 1.34 in (1962)
Month to date precipitation 3.70 3.78  
Year to date precipitation 11.75 7.46  
Snow  
Snow T in 0.10 in 3.20 in (1984)
Month to date snowfall T 3.1  
Since 1 July snowfall 6.1 8.4  
Snow Depth 0.00 in    
Sea Level Pressure  
Sea Level Pressure 29.83 in    
Wind  
Wind Speed 13 mph (West)    
Max Wind Speed 21 mph    
Max Gust Speed 28 mph    
Visibility 9 miles    
Events Rain , Snow    
T = Trace of Precipitation, MM = Missing Value Source: NWS Daily Summary

Daily Weather History Graph

Daily Weather History Graph

Search for Another Location

Airport or City:

Trip Planner

Search our weather history database for the weather conditions in past years. The results will help you decide how hot, cold, wet, or windy it might be!

Date:

Astronomy

Feb. 27, 2013 Rise Set
Actual Time 6:28 AM CST 5:47 PM CST
Civil Twilight 6:02 AM CST 6:13 PM CST
Nautical Twilight 5:32 AM CST 6:43 PM CST
Astronomical Twilight 5:02 AM CST 7:13 PM CST
Moon 8:03 PM CST (2/27) 7:07 AM CST (2/27)
Length of Visible Light 12h 11m
Length of Day
11h 19m
Waning Gibbous, 96% of the Moon is Illuminated
Feb 27
Waning Gibbous
Mar 4
Last Quarter
Mar 11
New
Mar 19
First Quarter
Mar 27
Full

Hourly Weather History & Observations

Time (CST) Temp. Windchill Dew Point Humidity Pressure Visibility Wind Dir Wind Speed Gust Speed Precip Events Conditions
12:53 AM 37.9 °F 30.0 °F 33.1 °F 83% 29.71 in 10.0 mi WSW 12.7 mph - N/A   Overcast
1:53 AM 37.9 °F 28.5 °F 32.0 °F 79% 29.73 in 10.0 mi WSW 17.3 mph 24.2 mph N/A   Overcast
2:53 AM 37.9 °F 29.6 °F 32.0 °F 79% 29.72 in 10.0 mi West 13.8 mph - N/A   Overcast
3:53 AM 37.0 °F 29.3 °F 32.0 °F 82% 29.74 in 10.0 mi WSW 11.5 mph - N/A   Overcast
4:53 AM 37.0 °F 28.1 °F 32.0 °F 82% 29.78 in 10.0 mi WSW 15.0 mph - N/A   Overcast
5:53 AM 37.0 °F 28.9 °F 32.0 °F 82% 29.78 in 10.0 mi West 12.7 mph - N/A   Overcast
6:53 AM 37.0 °F 28.5 °F 30.9 °F 79% 29.80 in 10.0 mi WSW 13.8 mph - N/A   Overcast
7:53 AM 37.0 °F 29.8 °F 30.9 °F 79% 29.82 in 10.0 mi West 10.4 mph - N/A   Overcast
8:50 AM 37.4 °F 29.8 °F 30.2 °F 75% 29.82 in 10.0 mi West 11.5 mph - N/A   Overcast
8:53 AM 37.0 °F 28.1 °F 30.9 °F 79% 29.83 in 10.0 mi West 15.0 mph - N/A   Overcast
9:53 AM 37.9 °F 29.2 °F 28.9 °F 70% 29.83 in 10.0 mi West 15.0 mph - N/A   Overcast
10:53 AM 39.0 °F 30.3 °F 28.0 °F 65% 29.83 in 10.0 mi WSW 16.1 mph 24.2 mph N/A   Overcast
11:53 AM 39.0 °F 29.9 °F 28.9 °F 67% 29.84 in 10.0 mi WSW 17.3 mph 23.0 mph N/A   Overcast
12:53 PM 39.0 °F 30.6 °F 28.9 °F 67% 29.83 in 10.0 mi WSW 15.0 mph - N/A   Overcast
1:53 PM 37.9 °F 28.2 °F 30.0 °F 73% 29.83 in 10.0 mi WSW 18.4 mph 25.3 mph N/A   Overcast
2:37 PM 37.4 °F 27.8 °F 32.0 °F 81% 29.83 in 9.0 mi West 17.3 mph - 0.00 in Rain Light Rain
2:53 PM 37.0 °F 28.5 °F 33.1 °F 86% 29.84 in 7.0 mi WSW 13.8 mph 24.2 mph 0.00 in Rain Light Rain
3:18 PM 37.4 °F 30.3 °F 33.8 °F 87% 29.83 in 7.0 mi West 10.4 mph - 0.00 in Rain Light Rain
3:25 PM 37.4 °F 28.2 °F 33.8 °F 87% 29.83 in 8.0 mi WSW 16.1 mph 21.9 mph 0.00 in   Overcast
3:53 PM 37.9 °F 29.2 °F 33.1 °F 83% 29.84 in 8.0 mi WSW 15.0 mph - 0.00 in   Overcast
4:04 PM 37.4 °F 27.8 °F 33.8 °F 87% 29.84 in 9.0 mi WSW 17.3 mph 21.9 mph N/A   Overcast
4:21 PM 37.4 °F 28.2 °F 32.0 °F 81% 29.85 in 5.0 mi West 16.1 mph 24.2 mph 0.00 in Snow Light Snow
4:44 PM 37.4 °F 29.8 °F 32.0 °F 81% 29.85 in 8.0 mi West 11.5 mph - 0.00 in   Overcast
4:53 PM 37.0 °F 29.3 °F 32.0 °F 82% 29.86 in 8.0 mi West 11.5 mph - 0.00 in   Overcast
5:53 PM 37.0 °F 28.5 °F 30.9 °F 79% 29.87 in 9.0 mi West 13.8 mph 23.0 mph N/A   Overcast
6:53 PM 37.0 °F 29.3 °F 30.0 °F 76% 29.89 in 10.0 mi West 11.5 mph - N/A   Overcast
7:45 PM 37.4 °F 29.8 °F 30.2 °F 75% 29.89 in 9.0 mi West 11.5 mph - N/A   Overcast
7:53 PM 37.0 °F 29.3 °F 30.0 °F 76% 29.90 in 9.0 mi West 11.5 mph - 0.00 in   Overcast
8:53 PM 35.1 °F 26.9 °F 30.9 °F 85% 29.91 in 7.0 mi West 11.5 mph 17.3 mph 0.01 in   Overcast
9:53 PM 35.1 °F 27.4 °F 30.0 °F 82% 29.91 in 9.0 mi West 10.4 mph - N/A   Overcast
10:53 PM 34.0 °F 26.0 °F 30.0 °F 85% 29.91 in 7.0 mi WNW 10.4 mph - 0.00 in   Overcast
11:53 PM 34.0 °F 28.0 °F 28.0 °F 79% 29.91 in 10.0 mi West 6.9 mph - N/A   Overcast